{"data":{"norad_id":69613,"epoch":"2026-09-20T04:00:03.000096Z","epoch_age_seconds":57670,"freshness":"FRESH","line1":"1 69613U 26140X   26263.16670139 -.01859464  00000+0 -11276+0 0  9994","line2":"2 69613  51.8850 300.2266 0006645 173.7514 268.2650 15.13525066  4267","mean_motion":15.13525066,"eccentricity":0.0006645,"inclination_deg":51.885,"raan_deg":300.2266,"arg_perigee_deg":173.7514,"mean_anomaly_deg":268.265,"bstar":-0.11276,"rev_number":426,"period_min":95.142130933166,"perigee_km":520.87252921696,"apogee_km":530.0474095893,"semimajor_km":6903.5969694031,"source":"CELESTRAK","updated_at":"2026-09-20T09:00:25.004284Z"}}